GLOBALSTAR M091 [+]

Last updated on July 6, 2021, 3:36 p.m. UTC

1 37741U 11033C   21186.84582385 -.00000097  00000-0  37758-4 0  9992
2 37741  52.0017 344.2571 0000719  92.7031  53.4258 12.62258325461121
UTC
Height (km)
Latitude
Longitude
Inclination
Orbital Period
UTC large
Height (km)
Speed (km/s)
/
Latitude / Longitude
Inclination (degrees)
Orbital Period (minutes)
Azimuth
Elevation
Range (km)
Doppler Factor
iOS Compass Heading
iOS Angle